Location: Briis
(48.6240°N, 2.1211°E)
Time: 02:27:33
(UTC+00:00)

Cosmos 1743 - Pass Details

Date: 25 September 2020
Orbit: 510 x 527 km, 82.6° (Epoch: 22 October)

Event Time Altitude Azimuth Distance (km) Brightness Sun altitude
Rises 03:43:57 0° 356° (N) 2,634 6.5 -20.0°
Reaches altitude 10° 03:46:10 10° 3° (N) 1,743 5.7 -19.6°
Maximum altitude 03:49:48 42° 76° (ENE) 748 4.0 -19.1°
Drops below altitude 10° 03:53:25 10° 148° (SSE) 1,732 5.5 -18.5°
Sets 03:55:37 0° 155° (SSE) 2,615 6.3 -18.2°
